Wind_Speed
30 31 32 33 34 34 35 37 37 38 39 40 40 41 42 42 43 43 43 44 45 46 46 47 48 48 49 50 51 51 51 51 51 51 52 52 53 54 55 55 55 55 55
32 32 33 35 36 36 37 38 38 39 40 40 41 42 42 43 43 43 43 44 44 45 45 46 46 47 47 48 48 48 49 49 49 50 52 52 52 53 53 53 53 53 52
33 34 34 35 36 37 37 38 39 39 40 40 40 41 41 41 42 42 42 42 42 42 43 44 44 45 46 47 47 47 48 49 50 50 50 50 50 50 49 48 47 47 47
33 34 35 35 36 37 38 38 38 38 39 39 39 38 39 39 39 40 40 39 39 40 41 42 42 43 43 43 44 45 45 45 45 45 45 46 46 46 45 44 43 42 41
34 35 35 35 35 35 35 35 35 35 35 36 36 36 37 37 37 37 37 37 38 39 39 40 40 40 41 41 40 40 40 40 40 40 40 40 40 39 39 38 38 37 36
32 32 33 33 33 32 33 33 33 33 33 33 34 34 34 34 34 35 35 36 36 37 37 37 36 36 36 35 35 35 34 34 34 34 34 33 32 32 31 31 30 30 29
29 30 30 30 30 30 30 30 30 30 30 30 30 31 31 31 31 32 32 33 33 32 30 30 30 29 29 29 28 27 27 27 26 26 25 25 25 25 25 25 24 23 23
26 27 27 26 26 26 26 26 26 26 27 27 28 28 27 28 28 28 28 26 25 25 25 24 24 23 23 22 21 21 21 20 20 19 19 19 20 20 20 19 19 19 19
24 23 23 23 23 23 23 24 24 25 25 25 24 24 24 24 24 23 22 22 22 22 21 21 20 20 19 18 18 17 17 16 16 15 15 15 15 15 15 15 15 15 15
21 21 21 21 22 22 22 22 23 22 22 22 21 21 21 21 21 21 20 19 19 20 19 19 18 18 17 17 16 16 15 14 14 13 13 14 13 13 13 13 12 12 13
20 20 20 21 21 21 21 21 21 20 20 19 18 18 19 19 19 18 18 18 17 17 17 16 16 16 16 15 15 14 13 12 12 13 13 13 13 12 12 12 11 11 12
18 19 19 19 20 20 20 20 19 18 17 16 16 16 16 16 16 16 15 15 15 15 14 14 14 14 15 15 15 14 13 13 13 13 13 13 12 11 11 11 11 11 12
17 17 18 18 18 18 18 17 16 15 15 14 14 14 14 14 14 13 13 13 14 13 13 12 13 13 14 14 15 15 14 13 13 13 13 13 12 11 11 11 11 12 12
16 16 16 16 16 15 15 14 14 13 13 12 12 12 12 11 12 12 12 13 13 12 12 12 13 14 14 14 15 15 14 14 13 13 13 12 12 11 11 11 11 12 12
14 14 13 13 13 13 12 12 11 11 11 10 10 10 10 10 11 11 12 12 12 12 12 13 14 14 14 15 15 15 14 14 13 13 13 12 12 11 11 11 11 12 12
10 10 10 10 9 9 9 9 9 9 9 8 8 9 9 9 10 10 11 11 12 12 13 13 14 14 14 14 14 14 14 14 13 13 13 12 12 11 11 11 11 12 12
7 7 7 7 7 7 7 7 7 7 7 7 7 7 8 8 9 9 10 11 12 12 13 13 14 14 14 14 14 14 14 13 13 13 12 11 11 11 11 11 11 11 12
5 5 5 5 6 6 6 5 5 5 5 6 6 7 7 7 8 9 10 11 11 12 13 13 13 13 14 14 14 14 13 13 13 13 12 11 10 10 10 10 11 11 12
5 5 5 5 5 6 5 5 5 5 5 5 6 6 7 7 9 10 11 11 12 12 13 13 13 13 13 14 14 13 13 13 12 12 11 11 10 9 9 10 11 11 12
5 5 5 5 6 6 6 6 5 5 6 6 6 6 7 8 9 10 10 11 11 12 12 12 13 13 13 13 13 13 13 12 12 11 11 10 9 9 9 10 10 10 11
6 6 6 6 6 6 6 6 6 6 6 6 6 7 8 8 9 10 10 11 11 12 12 13 13 13 13 13 12 12 12 12 11 11 10 10 9 9 9 9 10 10 10
7 7 6 6 6 6 6 6 7 7 7 7 7 8 8 9 9 10 10 11 11 12 12 13 13 13 13 13 12 12 12 11 11 11 10 10 9 9 9 9 9 10 10
9 8 8 7 7 7 8 8 8 8 8 8 8 9 9 10 10 10 11 11 12 12 13 13 13 13 13 12 12 12 12 11 11 11 10 10 9 9 9 9 9 10 10
11 10 9 8 9 9 9 9 9 9 9 9 9 9 10 10 10 11 11 12 12 13 14 14 14 13 13 13 12 12 12 11 11 11 10 10 10 10 10 10 10 11 11
12 11 10 10 10 10 10 10 10 10 10 10 10 10 11 11 11 12 12 13 13 14 14 14 14 14 14 14 13 13 12 12 12 12 11 11 11 11 11 12 12 12 12
13 12 12 12 12 11 11 11 11 11 11 11 11 11 12 12 13 13 13 14 14 15 15 15 15 15 15 15 15 14 14 13 13 13 13 13 13 13 13 13 13 13 14
Wind_Direction
275 276 277 278 280 280 281 282 283 284 285 286 287 288 288 289 289 289 289 289 288 287 287 286 286 285 284 283 283 281 279 278 278 278 277 277 276 276 277 277 277 278 278
276 276 277 278 279 280 281 282 283 284 285 286 287 289 289 290 290 291 291 291 290 290 289 289 288 287 286 286 284 282 281 280 280 279 278 278 278 278 278 279 280 281 281
276 277 278 278 279 279 281 283 284 285 287 288 289 290 290 291 292 293 293 292 292 291 291 290 289 289 288 286 285 284 282 281 280 280 279 278 279 280 280 281 281 282 284
275 276 277 278 279 280 282 284 286 287 288 289 291 292 293 293 294 294 294 294 293 293 292 291 291 290 289 288 287 285 284 283 282 282 281 281 281 282 282 283 284 285 286
276 277 279 280 282 283 284 285 286 287 289 290 291 292 293 294 294 295 296 296 296 295 294 293 292 291 290 290 289 287 286 285 284 284 284 284 285 285 285 285 286 287 288
277 279 281 283 284 284 285 286 287 288 290 291 292 293 294 294 295 296 297 297 297 297 296 296 295 294 293 293 292 291 291 290 289 288 288 288 288 287 289 289 290 290 290
280 282 284 285 284 285 285 286 287 289 290 292 293 293 294 295 296 298 300 300 301 302 302 303 302 301 300 299 299 298 298 297 295 294 293 293 292 292 293 294 294 294 294
282 283 284 284 284 284 285 287 288 289 290 292 294 294 295 297 300 302 304 306 307 309 311 313 313 312 311 311 310 309 308 306 304 303 302 301 300 299 300 301 300 300 301
282 283 284 285 285 285 285 286 287 289 290 292 293 295 298 302 306 308 309 311 314 316 318 320 322 322 322 323 322 321 320 318 317 317 316 316 316 313 310 310 308 309 312
283 284 285 285 285 286 287 288 289 290 292 292 293 297 301 305 309 310 312 315 317 320 322 324 326 328 329 330 330 331 331 331 333 332 331 329 326 325 325 323 320 321 323
284 284 285 285 285 287 288 288 289 291 291 293 296 300 304 308 311 314 316 318 322 325 327 330 334 338 340 341 340 341 341 339 339 339 336 333 331 330 331 331 331 333 335
285 285 285 285 286 287 288 288 289 290 291 294 299 303 307 311 314 317 320 324 328 331 333 336 340 344 346 348 348 346 344 342 340 339 339 338 336 335 335 337 338 340 341
287 289 288 288 288 288 288 288 288 289 290 294 300 306 311 316 319 322 327 331 333 333 335 339 342 345 347 349 350 350 348 345 343 342 340 339 339 339 340 342 343 345 346
289 291 291 292 292 290 289 288 289 289 290 296 302 308 314 319 323 327 331 333 335 336 338 339 340 341 342 344 345 345 344 343 343 343 344 343 342 344 344 346 348 351 353
293 294 295 297 297 295 294 291 289 289 294 299 305 311 315 320 324 328 330 332 334 336 337 338 339 338 339 341 342 342 343 344 344 345 346 348 349 350 351 352 354 356 357
302 301 302 304 307 308 304 298 293 294 298 303 308 313 318 323 327 330 333 336 338 339 339 340 339 339 339 339 339 341 343 343 345 347 349 352 355 358 359 359 359 0 2
318 316 319 323 326 327 324 317 309 304 307 313 316 320 325 329 332 334 335 337 339 339 340 341 340 340 340 340 342 344 346 348 349 350 353 356 358 0 3 4 4 5 6
345 344 345 348 349 348 347 343 332 323 324 327 329 331 333 335 337 338 339 340 341 341 341 341 341 342 343 345 346 347 349 350 351 352 355 357 0 4 6 8 8 9 9
7 5 4 5 5 3 2 0 356 351 349 347 343 342 344 343 342 342 343 344 345 344 344 344 345 347 349 350 351 352 353 354 355 356 358 359 3 6 8 9 10 11 11
18 17 17 15 14 16 16 13 10 8 7 5 1 358 354 352 350 349 349 349 348 348 349 350 351 352 352 353 355 356 356 358 360 1 1 3 7 9 9 11 13 13 14
29 28 23 20 19 22 22 21 21 20 20 17 13 9 4 0 357 356 355 354 354 354 354 354 355 355 356 357 358 360 1 3 5 6 8 11 14 15 14 16 18 18 18
38 36 29 25 25 27 28 27 26 25 25 23 20 15 10 7 6 5 2 360 359 359 359 360 0 1 1 2 3 5 6 8 10 13 16 18 20 22 24 25 25 24 24
37 35 31 29 30 33 36 36 34 32 29 26 21 17 15 14 13 10 7 6 6 6 6 6 7 8 9 9 9 11 13 15 18 20 22 24 27 30 32 33 34 33 32
34 35 35 38 42 44 43 39 36 34 31 26 23 22 22 20 18 16 16 16 15 14 14 13 13 14 16 18 18 20 22 24 26 28 30 33 36 39 41 44 44 43 43
39 40 43 45 46 45 43 41 40 38 35 33 31 30 29 28 28 28 26 24 22 22 22 21 22 24 25 27 28 30 32 34 37 39 42 44 47 50 51 52 52 52 53
42 45 48 49 48 47 46 44 42 41 40 40 39 38 37 36 35 33 31 30 29 28 29 30 31 32 34 35 37 39 41 43 44 47 49 52 54 57 59 59 59 58 59
Height
5785 5784 5784 5784 5783 5783 5782 5780 5779 5777 5775 5773 5771 5769 5767 5765 5762 5760 5757 5754 5751 5748 5745 5741 5738 5734 5730 5727 5723 5719 5716 5713 5709 5705 5702 5699 5696 5693 5689 5686 5683 5679 5675
5777 5776 5776 5775 5774 5773 5772 5770 5769 5767 5765 5763 5760 5758 5756 5753 5750 5747 5744 5741 5738 5735 5731 5727 5724 5720 5716 5712 5708 5704 5701 5697 5694 5691 5687 5684 5681 5678 5674 5671 5667 5664 5660
5768 5767 5767 5766 5765 5764 5762 5760 5759 5757 5754 5752 5750 5747 5745 5742 5739 5736 5733 5729 5726 5722 5718 5714 5710 5706 5702 5698 5694 5690 5686 5683 5679 5676 5672 5669 5666 5663 5660 5656 5653 5650 5647
5760 5759 5758 5757 5756 5754 5752 5751 5749 5746 5744 5742 5739 5736 5734 5731 5728 5725 5721 5718 5714 5710 5706 5702 5697 5693 5689 5684 5680 5676 5672 5668 5664 5661 5658 5655 5652 5649 5647 5644 5641 5638 5635
5750 5750 5749 5747 5746 5744 5743 5741 5739 5737 5734 5732 5729 5727 5724 5721 5718 5715 5711 5707 5703 5698 5694 5689 5684 5680 5675 5671 5667 5662 5659 5655 5651 5648 5645 5642 5640 5637 5635 5633 5630 5627 5625
5742 5741 5740 5738 5737 5735 5734 5732 5730 5728 5726 5723 5721 5718 5715 5712 5708 5704 5701 5696 5692 5688 5683 5678 5673 5668 5664 5659 5655 5651 5647 5644 5640 5638 5635 5632 5630 5628 5626 5623 5621 5619 5616
5734 5733 5731 5730 5729 5727 5726 5724 5722 5720 5717 5715 5712 5709 5706 5703 5699 5695 5691 5687 5683 5678 5673 5668 5663 5659 5655 5650 5646 5642 5639 5635 5632 5629 5627 5625 5623 5621 5619 5617 5614 5612 5610
5726 5725 5724 5722 5721 5720 5718 5716 5714 5712 5710 5707 5704 5701 5698 5695 5691 5687 5684 5680 5675 5671 5666 5661 5657 5653 5648 5644 5640 5637 5633 5629 5626 5624 5622 5619 5617 5615 5613 5612 5609 5607 5605
5720 5718 5717 5716 5714 5713 5711 5709 5707 5705 5703 5700 5697 5694 5691 5688 5685 5681 5677 5674 5670 5666 5661 5657 5653 5649 5645 5641 5637 5633 5630 5626 5623 5620 5618 5616 5614 5611 5609 5608 5606 5604 5601
5713 5712 5711 5709 5708 5706 5705 5703 5700 5698 5696 5694 5691 5688 5686 5682 5679 5676 5672 5669 5665 5662 5658 5654 5650 5646 5642 5638 5634 5631 5627 5624 5621 5618 5616 5614 5612 5609 5607 5605 5603 5601 5599
5707 5706 5705 5703 5702 5700 5698 5696 5695 5693 5691 5688 5686 5683 5680 5678 5674 5671 5668 5665 5662 5658 5655 5651 5648 5644 5640 5636 5633 5629 5626 5623 5620 5618 5615 5612 5610 5608 5606 5604 5602 5600 5597
5702 5700 5699 5697 5696 5694 5693 5691 5689 5687 5686 5684 5681 5679 5676 5673 5671 5668 5665 5662 5659 5656 5653 5650 5646 5643 5639 5636 5632 5629 5625 5622 5620 5617 5614 5612 5609 5607 5605 5603 5600 5598 5596
5696 5695 5693 5692 5691 5689 5687 5686 5684 5682 5681 5679 5677 5675 5672 5670 5668 5665 5663 5660 5657 5654 5651 5648 5645 5642 5639 5635 5632 5628 5625 5622 5619 5616 5613 5611 5608 5606 5604 5602 5599 5597 5595
5692 5690 5689 5687 5685 5684 5682 5681 5679 5678 5677 5675 5673 5672 5670 5668 5666 5663 5661 5658 5655 5653 5650 5647 5644 5641 5638 5635 5631 5628 5625 5621 5618 5615 5613 5610 5607 5605 5603 5601 5598 5596 5593
5687 5686 5684 5682 5681 5679 5678 5676 5675 5674 5673 5672 5670 5669 5667 5666 5664 5662 5659 5657 5654 5651 5649 5646 5643 5640 5637 5634 5630 5627 5624 5620 5617 5614 5612 5609 5606 5604 5602 5600 5598 5595 5593
5683 5682 5681 5679 5677 5676 5674 5673 5672 5671 5670 5669 5668 5667 5665 5664 5662 5660 5658 5655 5653 5650 5648 5645 5642 5639 5636 5632 5629 5626 5623 5619 5616 5614 5611 5608 5606 5603 5601 5599 5597 5595 5592
5680 5679 5678 5677 5675 5674 5672 5671 5670 5669 5668 5667 5666 5665 5664 5662 5660 5658 5656 5654 5652 5649 5646 5644 5641 5638 5634 5631 5628 5625 5622 5619 5616 5613 5610 5608 5605 5603 5601 5599 5597 5595 5593
5679 5678 5677 5676 5675 5673 5672 5670 5669 5668 5667 5666 5665 5664 5662 5661 5659 5657 5655 5653 5650 5648 5645 5642 5639 5636 5633 5630 5627 5623 5621 5618 5615 5612 5610 5607 5605 5603 5601 5599 5597 5595 5593
5679 5678 5677 5676 5675 5673 5672 5670 5669 5668 5667 5666 5664 5663 5662 5660 5658 5656 5654 5652 5649 5646 5644 5641 5638 5635 5632 5629 5626 5623 5620 5617 5614 5612 5609 5607 5605 5603 5601 5599 5597 5596 5593
5679 5678 5677 5676 5675 5674 5672 5671 5670 5668 5667 5665 5664 5663 5661 5659 5657 5655 5653 5651 5648 5645 5643 5640 5637 5634 5631 5628 5625 5622 5619 5617 5614 5612 5609 5607 5605 5603 5602 5600 5598 5596 5594
5680 5679 5678 5677 5676 5674 5673 5672 5670 5669 5667 5666 5664 5663 5661 5659 5657 5655 5653 5650 5648 5645 5642 5639 5636 5633 5630 5627 5625 5622 5619 5617 5614 5612 5610 5608 5606 5604 5602 5600 5599 5597 5595
5681 5680 5679 5678 5676 5675 5673 5672 5671 5669 5668 5666 5665 5663 5661 5659 5657 5655 5652 5650 5647 5645 5642 5639 5636 5633 5630 5627 5624 5622 5619 5617 5615 5612 5610 5608 5606 5605 5603 5601 5600 5598 5596
5683 5681 5680 5679 5677 5676 5674 5673 5671 5670 5668 5667 5665 5664 5662 5660 5657 5655 5653 5650 5647 5645 5642 5639 5636 5633 5630 5627 5625 5622 5620 5617 5615 5613 5611 5609 5608 5606 5604 5603 5601 5599 5598
5684 5683 5681 5680 5678 5677 5675 5674 5673 5671 5670 5668 5666 5664 5662 5660 5658 5656 5653 5651 5648 5645 5642 5639 5636 5634 5631 5628 5626 5623 5621 5619 5616 5614 5612 5611 5609 5607 5606 5605 5603 5601 5600
5686 5685 5683 5682 5680 5679 5677 5676 5674 5673 5671 5670 5668 5666 5664 5662 5659 5657 5655 5652 5649 5646 5644 5641 5638 5635 5632 5630 5627 5625 5622 5620 5618 5616 5614 5613 5611 5610 5608 5607 5606 5604 5603
5689 5687 5686 5684 5682 5681 5680 5678 5677 5675 5673 5672 5670 5668 5666 5664 5661 5659 5656 5654 5651 5648 5646 5643 5640 5637 5635 5632 5629 5627 5625 5623 5621 5619 5617 5616 5614 5613 5611 5610 5609 5607 5606